CZ-6A DEB, 55886

Orbit data source: Space-Track

CZ-6A DEB, 55886 is space debris in SSO originally from a launch on Fri, 11 Nov 2022 UTC launched from the Taiyaun Space Center, China (TSC). Debris objects in space refer to the collection of defunct objects orbiting the Earth. Examples of debris include non-operational satellites, rocket bodies, and fragments generated from explosions, collisions, or faulty payload assembly.

CZ-6A DEB will be above the set Earth location in 4 hours
Identifier
55886, 2022-151AAJ
Orbit
SSO
Last TLE update
2 days ago
Origin
Manufacturer
SAST
Mission
Spacecraft
Bus & Motor
Unknown
Mass
Unknown
Launch date (UTC)
2022-11-11 (2 years ago)
Launch vehicle
Unknown
Launch site
Taiyaun Space Center, China (TSC)
Object type
Payload
Rocket body
Debris
Shape & HBR
Unknown
Radar Cross Section
Small (<0.1 m²)

Expand to show TLE details & history

TLE from 2 days ago
0 CZ-6A DEB
1 55886U 22151AAJ 25130.02093904  .00006089  00000-0  19756-2 0  9994
2 55886  98.7611 157.6434 0043508  51.8788 308.6309 14.38717443 38319
Epoch: 2025-05-10T00:30Z
Definitive object data (Epoch: 2025-05-10T00:30:09.133Z)
Latitude
0.00005°
Longitude
-77.96338°
Altitude
746.36 km
Speed
7.492 km/s
True Right ascension
10h 30m 34s
True Declination
0° 00' 00"
Sunlit
Object was in daylight at TLE epoch
Visualization TLE readout
Latitude
-23.26877°
Longitude
100.14219°
Altitude
799.946 km
Speed
7.438 km/s
Apparent Right ascension
20h 13m 40s
Apparent Declination
-37° 31' 22"
Sunlit
Object is in daylight
Visualization observer readout
Local Sidereal Time
05:09:23
Azimuth
258.704° W
Elevation
-54.374°
Doppler factor
1
Orbital elements
Apogee altitude
790.931 km
Perigee altitude
728.819 km
Semi-major axis
7,138.012 km
Eccentricity
0.0043508
Inclination
98.7611°
RAAN
157.6434°
Arg. of periapsis
51.8788°
True anomaly
308.24011°
Mean anomaly
308.6309°
Eccentric anomaly
308.43564°
Mean motion
3.59896 °/min
BSTAR
0.0019756
Orbital period
100.03 mins
Loading maneuver chart data...
Loading SW <> Apogee altitude chart data...
Loading historical data...
Loading historical data...
Loading historical data...
Loading historical data...
Loading historical data...
Loading historical data...
Loading historical data...

CZ-6A DEB Visibility forecast

Observer location: undefined°, undefined°

Span
Click to sort rows by Start time (UTC) header in descending order
Start Az.
Max El. time (UTC)
Max El. Az.
Max El.
End time (UTC)
End Az.
8 mins2025-05-12 01:02:18.272Z129.501° SE2025-05-12 01:06:18.272Z66.128° ENE29.032°2025-05-12 01:10:18.272Z6.669° NNE
6 mins2025-05-12 02:42:18.272Z219.183° SW2025-05-12 02:45:18.272Z267.674° W22.923°2025-05-12 02:48:18.272Z312.822° NW
8 mins2025-05-12 14:50:18.272Z10.44° NNE2025-05-12 14:54:18.272Z236.277° WSW44.149°2025-05-12 14:58:18.272Z199.412° SSW
|